MTN945 TFFF-TNCM

Flight info

Callsign MTN945
Flight time 1h 56m
Altitude 14000
Route PPR A312 ANU B520 ELOPO
Aircraft C208/L-SDF/C

Departure

Time 2026-04-21 22:45
Airport Martinique Aimé Césaire International Airport (TFFF)

Arrival

Time 2026-04-22 00:42
Airport Princess Juliana International Airport (TNCM)
Time Latitude Longitude Altitude Speed Heading
2026-04-21 22:30 14.59557 -61.00403 16 ft 0 kts 247°
2026-04-21 22:41 14.59550 -61.00410 16 ft 6 kts 196°
2026-04-21 22:41 14.59558 -61.00340 17 ft 17 kts 62°
2026-04-21 22:41 14.59478 -61.00244 18 ft 25 kts 140°
2026-04-21 22:42 14.59369 -61.00068 17 ft 27 kts 115°
2026-04-21 22:42 14.59215 -61.00025 18 ft 29 kts 170°
2026-04-21 22:42 14.59127 -61.00217 15 ft 38 kts 260°
2026-04-21 22:42 14.59077 -61.00504 14 ft 44 kts 260°
2026-04-21 22:43 14.59015 -61.00827 23 ft 48 kts 260°
2026-04-21 22:43 14.58950 -61.01125 22 ft 20 kts 246°
2026-04-21 22:43 14.58969 -61.01123 22 ft 0 kts 79°
2026-04-21 22:43 14.58972 -61.01106 22 ft 14 kts 79°
2026-04-21 22:44 14.59016 -61.00837 21 ft 61 kts 82°
2026-04-21 22:44 14.59115 -61.00275 15 ft 96 kts 79°
2026-04-21 22:44 14.59235 -60.99530 111 ft 107 kts 80°
2026-04-21 22:44 14.59348 -60.98789 314 ft 108 kts 79°
2026-04-21 22:45 14.59508 -60.97974 347 ft 122 kts 77°
2026-04-21 22:45 14.59678 -60.97132 558 ft 120 kts 79°
2026-04-21 22:45 14.59807 -60.96283 763 ft 119 kts 80°
2026-04-21 22:45 14.59920 -60.95447 976 ft 117 kts 82°
2026-04-21 22:46 14.59996 -60.94619 1189 ft 115 kts 85°
2026-04-21 22:46 14.60034 -60.93833 1327 ft 97 kts 86°
2026-04-21 22:46 14.60055 -60.93161 1130 ft 95 kts 88°
2026-04-21 22:46 14.60056 -60.92493 996 ft 87 kts 88°
2026-04-21 22:47 14.60055 -60.91857 1137 ft 92 kts 88°
2026-04-21 22:47 14.60045 -60.91175 1322 ft 98 kts 91°
2026-04-21 22:47 14.60233 -60.90514 1486 ft 101 kts 40°
2026-04-21 22:47 14.60897 -60.90416 1640 ft 100 kts 357°
2026-04-21 22:48 14.61580 -60.90475 1798 ft 98 kts 359°
2026-04-21 22:48 14.62268 -60.90535 1939 ft 101 kts 359°
2026-04-21 22:48 14.62973 -60.90593 2072 ft 103 kts 359°
2026-04-21 22:48 14.63693 -60.90644 2209 ft 105 kts
2026-04-21 22:49 14.64438 -60.90662 2345 ft 108 kts
2026-04-21 22:49 14.65197 -60.90647 2481 ft 109 kts
2026-04-21 22:49 14.65962 -60.90604 2615 ft 111 kts
2026-04-21 22:49 14.66724 -60.90527 2745 ft 112 kts 10°
2026-04-21 22:50 14.67495 -60.90418 2875 ft 112 kts 12°
2026-04-21 22:50 14.68261 -60.90280 3003 ft 112 kts 14°
2026-04-21 22:50 14.69022 -60.90111 3129 ft 112 kts 17°
2026-04-21 22:50 14.69778 -60.89912 3257 ft 113 kts 18°
2026-04-21 22:51 14.70548 -60.89740 3376 ft 116 kts 358°
2026-04-21 22:51 14.71292 -60.90064 3502 ft 120 kts 324°
2026-04-21 22:51 14.72050 -60.90331 3627 ft 116 kts 360°
2026-04-21 22:51 14.72861 -60.90424 3771 ft 118 kts 355°
2026-04-21 22:52 14.73674 -60.90569 3895 ft 118 kts 352°
2026-04-21 22:52 14.74475 -60.90738 4051 ft 118 kts 351°
2026-04-21 22:52 14.75286 -60.90917 4202 ft 120 kts 351°
2026-04-21 22:52 14.76098 -60.91107 4347 ft 119 kts 350°
2026-04-21 22:53 14.76901 -60.91293 4498 ft 116 kts 350°
2026-04-21 22:53 14.77687 -60.91481 4642 ft 116 kts 349°
2026-04-21 22:53 14.78471 -60.91665 4788 ft 115 kts 349°
2026-04-21 22:53 14.79252 -60.91848 4933 ft 114 kts 349°
2026-04-21 22:54 14.80016 -60.92028 5078 ft 114 kts 349°
2026-04-21 22:54 14.80788 -60.92209 5223 ft 113 kts 349°
2026-04-21 22:54 14.81556 -60.92389 5370 ft 113 kts 349°
2026-04-21 22:54 14.82319 -60.92569 5517 ft 112 kts 349°
2026-04-21 22:55 14.83079 -60.92747 5664 ft 111 kts 349°
2026-04-21 22:55 14.83830 -60.92924 5808 ft 110 kts 348°
2026-04-21 22:55 14.84576 -60.93100 5953 ft 109 kts 348°
2026-04-21 22:55 14.85316 -60.93274 6098 ft 109 kts 348°
2026-04-21 22:56 14.86053 -60.93447 6246 ft 109 kts 348°
2026-04-21 22:56 14.86789 -60.93619 6393 ft 108 kts 348°
2026-04-21 22:56 14.87522 -60.93792 6541 ft 108 kts 348°
2026-04-21 22:56 14.88244 -60.93962 6687 ft 107 kts 348°
2026-04-21 22:57 14.88968 -60.94133 6833 ft 107 kts 348°
2026-04-21 22:57 14.89691 -60.94303 6978 ft 106 kts 348°
2026-04-21 22:57 14.90411 -60.94472 7124 ft 106 kts 348°
2026-04-21 22:57 14.91125 -60.94641 7268 ft 105 kts 348°
2026-04-21 22:58 14.91834 -60.94807 7410 ft 104 kts 348°
2026-04-21 22:58 14.92536 -60.94973 7558 ft 103 kts 348°
2026-04-21 22:58 14.93231 -60.95138 7701 ft 102 kts 348°
2026-04-21 22:58 14.93918 -60.95303 7842 ft 100 kts 344°
2026-04-21 22:59 14.94531 -60.95635 7980 ft 99 kts 332°
2026-04-21 22:59 14.95133 -60.95967 8117 ft 96 kts 332°
2026-04-21 22:59 14.95735 -60.96302 8192 ft 101 kts 332°
2026-04-21 22:59 14.96365 -60.96651 8293 ft 105 kts 333°
2026-04-21 23:00 14.97020 -60.97015 8390 ft 109 kts 332°
2026-04-21 23:00 14.97697 -60.97394 8490 ft 112 kts 332°
2026-04-21 23:00 14.98396 -60.97783 8585 ft 116 kts 332°
2026-04-21 23:00 14.99106 -60.98178 8680 ft 119 kts 332°
2026-04-21 23:01 14.99847 -60.98592 8774 ft 123 kts 332°
2026-04-21 23:01 15.00612 -60.99019 8865 ft 126 kts 332°
2026-04-21 23:01 15.01388 -60.99452 8953 ft 128 kts 332°
2026-04-21 23:01 15.02174 -60.99892 9037 ft 130 kts 332°
2026-04-21 23:02 15.02971 -61.00337 9121 ft 131 kts 332°
2026-04-21 23:02 15.03776 -61.00787 9202 ft 132 kts 332°
2026-04-21 23:02 15.04589 -61.01241 9282 ft 133 kts 332°
2026-04-21 23:02 15.05408 -61.01698 9362 ft 134 kts 332°
2026-04-21 23:03 15.06230 -61.02158 9442 ft 135 kts 331°
2026-04-21 23:03 15.07059 -61.02621 9521 ft 136 kts 331°
2026-04-21 23:03 15.07889 -61.03085 9598 ft 136 kts 331°
2026-04-21 23:03 15.08727 -61.03553 9676 ft 137 kts 331°
2026-04-21 23:04 15.09567 -61.04022 9753 ft 138 kts 331°
2026-04-21 23:04 15.10410 -61.04494 9829 ft 138 kts 331°
2026-04-21 23:04 15.11254 -61.04966 9906 ft 138 kts 331°
2026-04-21 23:04 15.12089 -61.05434 9951 ft 140 kts 331°
2026-04-21 23:05 15.12963 -61.05921 9959 ft 144 kts 331°
2026-04-21 23:05 15.13868 -61.06426 9962 ft 147 kts 331°
2026-04-21 23:05 15.14765 -61.06928 9957 ft 150 kts 331°
2026-04-21 23:05 15.15688 -61.07445 9953 ft 152 kts 331°
2026-04-21 23:06 15.16619 -61.07965 9954 ft 152 kts 331°
2026-04-21 23:06 15.17555 -61.08488 9954 ft 153 kts 331°
2026-04-21 23:06 15.18491 -61.09013 9953 ft 153 kts 331°
2026-04-21 23:06 15.19427 -61.09537 9954 ft 153 kts 331°
2026-04-21 23:07 15.20369 -61.10064 9955 ft 153 kts 331°
2026-04-21 23:07 15.21308 -61.10590 9954 ft 153 kts 331°
2026-04-21 23:07 15.22245 -61.11115 9952 ft 153 kts 331°
2026-04-21 23:07 15.23180 -61.11639 9952 ft 153 kts 331°
2026-04-21 23:08 15.24115 -61.12162 9951 ft 153 kts 331°
2026-04-21 23:08 15.25048 -61.12685 9951 ft 152 kts 331°
2026-04-21 23:08 15.25981 -61.13208 9950 ft 152 kts 331°
2026-04-21 23:08 15.26914 -61.13730 9950 ft 152 kts 331°
2026-04-21 23:09 15.27846 -61.14253 9949 ft 152 kts 331°
2026-04-21 23:09 15.28778 -61.14774 9949 ft 152 kts 331°
2026-04-21 23:09 15.29708 -61.15296 9949 ft 152 kts 331°
2026-04-21 23:09 15.30640 -61.15818 9948 ft 152 kts 331°
2026-04-21 23:10 15.31570 -61.16339 9948 ft 152 kts 331°
2026-04-21 23:10 15.32491 -61.16855 9948 ft 152 kts 331°
2026-04-21 23:10 15.33421 -61.17376 9944 ft 152 kts 331°
2026-04-21 23:10 15.34351 -61.17898 9957 ft 151 kts 331°
2026-04-21 23:11 15.35276 -61.18417 9956 ft 152 kts 331°
2026-04-21 23:11 15.36208 -61.18939 9955 ft 152 kts 331°
2026-04-21 23:11 15.37138 -61.19461 9955 ft 152 kts 331°
2026-04-21 23:11 15.38070 -61.19984 9954 ft 152 kts 331°
2026-04-21 23:12 15.39000 -61.20505 9961 ft 152 kts 331°
2026-04-21 23:12 15.39927 -61.21025 9966 ft 152 kts 331°
2026-04-21 23:12 15.40858 -61.21546 9967 ft 153 kts 331°
2026-04-21 23:12 15.41792 -61.22070 9968 ft 153 kts 331°
2026-04-21 23:13 15.42731 -61.22596 9970 ft 153 kts 331°
2026-04-21 23:13 15.43668 -61.23123 9970 ft 153 kts 331°
2026-04-21 23:13 15.44605 -61.23649 9970 ft 153 kts 331°
2026-04-21 23:13 15.45546 -61.24178 9975 ft 153 kts 331°
2026-04-21 23:14 15.46479 -61.24702 9974 ft 153 kts 331°
2026-04-21 23:14 15.47404 -61.25221 9973 ft 153 kts 331°
2026-04-21 23:14 15.48344 -61.25748 9975 ft 153 kts 331°
2026-04-21 23:14 15.49279 -61.26273 9984 ft 153 kts 331°
2026-04-21 23:15 15.50214 -61.26797 9984 ft 153 kts 332°
2026-04-21 23:15 15.51149 -61.27321 9985 ft 153 kts 331°
2026-04-21 23:15 15.52087 -61.27850 9984 ft 153 kts 331°
2026-04-21 23:15 15.53009 -61.28368 9983 ft 153 kts 331°
2026-04-21 23:16 15.53943 -61.28893 9983 ft 153 kts 331°
2026-04-21 23:16 15.54884 -61.29422 9984 ft 153 kts 331°
2026-04-21 23:16 15.55873 -61.29821 9984 ft 153 kts 342°
2026-04-21 23:16 15.56902 -61.30155 9993 ft 159 kts 342°
2026-04-21 23:17 15.57959 -61.30511 9997 ft 158 kts 341°
2026-04-21 23:17 15.58995 -61.30870 9994 ft 156 kts 341°
2026-04-21 23:17 15.60027 -61.31222 9992 ft 156 kts 341°
2026-04-21 23:17 15.61051 -61.31573 9989 ft 154 kts 341°
2026-04-21 23:18 15.62069 -61.31922 9985 ft 154 kts 341°
2026-04-21 23:18 15.63085 -61.32268 9984 ft 153 kts 341°
2026-04-21 23:18 15.64111 -61.32618 9988 ft 158 kts 341°
2026-04-21 23:18 15.65158 -61.32971 9990 ft 157 kts 341°
2026-04-21 23:19 15.66186 -61.33325 9987 ft 155 kts 341°
2026-04-21 23:19 15.67213 -61.33677 9985 ft 155 kts 341°
2026-04-21 23:19 15.68230 -61.34024 9982 ft 154 kts 341°
2026-04-21 23:19 15.69248 -61.34372 9983 ft 153 kts 341°
2026-04-21 23:20 15.70272 -61.34722 9988 ft 158 kts 341°
2026-04-21 23:20 15.71317 -61.35075 9990 ft 157 kts 341°
2026-04-21 23:20 15.72333 -61.35424 9989 ft 155 kts 341°
2026-04-21 23:20 15.73358 -61.35776 9987 ft 154 kts 341°
2026-04-21 23:21 15.74375 -61.36124 9985 ft 154 kts 341°
2026-04-21 23:21 15.75390 -61.36473 9984 ft 154 kts 341°
2026-04-21 23:21 15.76405 -61.36817 9984 ft 154 kts 341°
2026-04-21 23:21 15.77422 -61.37165 9983 ft 154 kts 341°
2026-04-21 23:22 15.78437 -61.37512 9983 ft 154 kts 341°
2026-04-21 23:22 15.79451 -61.37859 9982 ft 153 kts 341°
2026-04-21 23:22 15.80468 -61.38207 9981 ft 153 kts 341°
2026-04-21 23:22 15.81482 -61.38553 9981 ft 153 kts 341°
2026-04-21 23:23 15.82496 -61.38900 9981 ft 153 kts 341°
2026-04-21 23:23 15.83511 -61.39247 9980 ft 153 kts 341°
2026-04-21 23:23 15.84525 -61.39594 9980 ft 153 kts 341°
2026-04-21 23:23 15.85527 -61.39938 9979 ft 153 kts 341°
2026-04-21 23:24 15.86538 -61.40284 9985 ft 153 kts 341°
2026-04-21 23:24 15.87550 -61.40629 9985 ft 153 kts 341°
2026-04-21 23:24 15.88559 -61.40974 9984 ft 153 kts 341°
2026-04-21 23:24 15.89571 -61.41321 9984 ft 153 kts 341°
2026-04-21 23:25 15.90244 -61.41551 9984 ft 153 kts 341°
2026-04-21 23:25 15.91253 -61.41897 9983 ft 153 kts 341°
2026-04-21 23:25 15.92268 -61.42243 9983 ft 153 kts 341°
2026-04-21 23:25 15.93280 -61.42590 9983 ft 153 kts 341°
2026-04-21 23:26 15.94292 -61.42937 9983 ft 153 kts 341°
2026-04-21 23:26 15.95302 -61.43283 9982 ft 153 kts 341°
2026-04-21 23:26 15.96314 -61.43630 9982 ft 153 kts 341°
2026-04-21 23:26 15.97329 -61.43977 9982 ft 153 kts 341°
2026-04-21 23:27 15.98341 -61.44324 9981 ft 153 kts 341°
2026-04-21 23:27 15.99356 -61.44671 9983 ft 153 kts 341°
2026-04-21 23:27 16.00354 -61.45014 9983 ft 153 kts 341°
2026-04-21 23:27 16.01368 -61.45361 9982 ft 153 kts 342°
2026-04-21 23:28 16.02384 -61.45710 9981 ft 154 kts 342°
2026-04-21 23:28 16.03398 -61.46057 9983 ft 154 kts 342°
2026-04-21 23:28 16.04414 -61.46405 9983 ft 154 kts 342°
2026-04-21 23:28 16.05431 -61.46754 9982 ft 154 kts 341°
2026-04-21 23:29 16.06447 -61.47101 9982 ft 154 kts 342°
2026-04-21 23:29 16.07464 -61.47451 9982 ft 154 kts 342°
2026-04-21 23:29 16.08481 -61.47800 9981 ft 154 kts 342°
2026-04-21 23:29 16.09488 -61.48145 9984 ft 153 kts 342°
2026-04-21 23:30 16.10506 -61.48494 9983 ft 154 kts 341°
2026-04-21 23:30 16.11520 -61.48842 9983 ft 154 kts 342°
2026-04-21 23:30 16.12539 -61.49192 9981 ft 154 kts 342°
2026-04-21 23:30 16.13554 -61.49540 9983 ft 153 kts 341°
2026-04-21 23:31 16.14566 -61.49889 9982 ft 153 kts 342°
2026-04-21 23:31 16.15575 -61.50235 9983 ft 153 kts 342°
2026-04-21 23:31 16.16587 -61.50582 9983 ft 153 kts 342°
2026-04-21 23:31 16.17599 -61.50929 9982 ft 153 kts 341°
2026-04-21 23:32 16.18609 -61.51276 9983 ft 153 kts 342°
2026-04-21 23:32 16.19624 -61.51624 9982 ft 153 kts 342°
2026-04-21 23:32 16.20622 -61.51967 9983 ft 153 kts 342°
2026-04-21 23:32 16.21634 -61.52315 9983 ft 153 kts 341°
2026-04-21 23:33 16.22647 -61.52662 9983 ft 153 kts 342°
2026-04-21 23:33 16.23658 -61.53010 9984 ft 153 kts 341°
2026-04-21 23:33 16.24670 -61.53358 9984 ft 153 kts 342°
2026-04-21 23:33 16.25680 -61.53705 9983 ft 153 kts 341°
2026-04-21 23:34 16.26696 -61.54046 9983 ft 153 kts 345°
2026-04-21 23:34 16.27722 -61.54340 9983 ft 153 kts 343°
2026-04-21 23:34 16.28744 -61.54657 9984 ft 153 kts 343°
2026-04-21 23:34 16.29768 -61.54970 9984 ft 153 kts 343°
2026-04-21 23:35 16.30797 -61.55280 9984 ft 153 kts 343°
2026-04-21 23:35 16.31818 -61.55588 9983 ft 153 kts 344°
2026-04-21 23:35 16.32829 -61.55893 9983 ft 153 kts 344°
2026-04-21 23:35 16.33855 -61.56202 9984 ft 154 kts 344°
2026-04-21 23:36 16.34898 -61.56516 9984 ft 154 kts 344°
2026-04-21 23:36 16.35925 -61.56825 9984 ft 154 kts 343°
2026-04-21 23:36 16.36940 -61.57131 9984 ft 154 kts 344°
2026-04-21 23:36 16.37969 -61.57441 9984 ft 154 kts 344°
2026-04-21 23:37 16.38997 -61.57752 9983 ft 154 kts 344°
2026-04-21 23:37 16.40022 -61.58060 9984 ft 154 kts 344°
2026-04-21 23:37 16.41052 -61.58370 9995 ft 153 kts 344°
2026-04-21 23:37 16.42080 -61.58681 9993 ft 153 kts 343°
2026-04-21 23:38 16.43104 -61.58991 9992 ft 153 kts 344°
2026-04-21 23:38 16.44128 -61.59299 9991 ft 153 kts 344°
2026-04-21 23:38 16.45152 -61.59608 9992 ft 153 kts 343°
2026-04-21 23:38 16.46174 -61.59916 9992 ft 153 kts 344°
2026-04-21 23:39 16.47198 -61.60225 9991 ft 153 kts 344°
2026-04-21 23:39 16.48221 -61.60533 9990 ft 153 kts 343°
2026-04-21 23:39 16.49244 -61.60843 9989 ft 153 kts 344°
2026-04-21 23:39 16.50266 -61.61150 9989 ft 153 kts 344°
2026-04-21 23:40 16.51285 -61.61458 9989 ft 153 kts 343°
2026-04-21 23:40 16.52306 -61.61767 9988 ft 153 kts 344°
2026-04-21 23:40 16.53313 -61.62071 9987 ft 152 kts 343°
2026-04-21 23:40 16.54332 -61.62378 9987 ft 152 kts 344°
2026-04-21 23:41 16.55352 -61.62686 9987 ft 153 kts 344°
2026-04-21 23:41 16.56372 -61.62994 9986 ft 153 kts 343°
2026-04-21 23:41 16.57393 -61.63303 9986 ft 153 kts 344°
2026-04-21 23:41 16.58415 -61.63611 9985 ft 153 kts 344°
2026-04-21 23:42 16.59436 -61.63919 9983 ft 153 kts 344°
2026-04-21 23:42 16.60465 -61.64230 9986 ft 154 kts 344°
2026-04-21 23:42 16.61489 -61.64540 9986 ft 153 kts 344°
2026-04-21 23:42 16.62513 -61.64849 9986 ft 153 kts 343°
2026-04-21 23:43 16.63533 -61.65158 9986 ft 153 kts 344°
2026-04-21 23:43 16.64556 -61.65467 9986 ft 153 kts 344°
2026-04-21 23:43 16.65581 -61.65776 9986 ft 153 kts 344°
2026-04-21 23:43 16.66606 -61.66086 9987 ft 154 kts 344°
2026-04-21 23:44 16.67635 -61.66397 9987 ft 154 kts 344°
2026-04-21 23:44 16.68663 -61.66708 9987 ft 154 kts 344°
2026-04-21 23:44 16.69678 -61.67014 9987 ft 154 kts 344°
2026-04-21 23:44 16.70710 -61.67327 9986 ft 154 kts 343°
2026-04-21 23:45 16.71734 -61.67637 9984 ft 153 kts 344°
2026-04-21 23:45 16.73779 -61.68254 9984 ft 153 kts 344°
2026-04-21 23:45 16.74805 -61.68564 9984 ft 154 kts 344°
2026-04-21 23:46 16.75834 -61.68874 9984 ft 154 kts 344°
2026-04-21 23:46 16.76861 -61.69184 9984 ft 154 kts 344°
2026-04-21 23:46 16.77892 -61.69496 9983 ft 153 kts 343°
2026-04-21 23:46 16.78917 -61.69806 9982 ft 153 kts 344°
2026-04-21 23:47 16.79937 -61.70114 9993 ft 152 kts 344°
2026-04-21 23:47 16.80955 -61.70422 9992 ft 152 kts 344°
2026-04-21 23:47 16.81975 -61.70730 9991 ft 153 kts 344°
2026-04-21 23:47 16.82995 -61.71039 9992 ft 153 kts 344°
2026-04-21 23:48 16.84014 -61.71346 9991 ft 153 kts 344°
2026-04-21 23:48 16.85036 -61.71655 9991 ft 153 kts 344°
2026-04-21 23:48 16.86057 -61.71964 9991 ft 153 kts 343°
2026-04-21 23:48 16.87077 -61.72274 9992 ft 153 kts 344°
2026-04-21 23:49 16.88099 -61.72582 9992 ft 153 kts 344°
2026-04-21 23:49 16.89108 -61.72886 9992 ft 153 kts 344°
2026-04-21 23:49 16.90127 -61.73193 9992 ft 153 kts 344°
2026-04-21 23:49 16.91150 -61.73503 9993 ft 153 kts 344°
2026-04-21 23:50 16.92179 -61.73815 9992 ft 153 kts 344°
2026-04-21 23:50 16.93202 -61.74123 9991 ft 153 kts 344°
2026-04-21 23:50 16.94222 -61.74433 9993 ft 153 kts 344°
2026-04-21 23:50 16.95245 -61.74743 9991 ft 153 kts 344°
2026-04-21 23:51 16.96267 -61.75052 9993 ft 153 kts 344°
2026-04-21 23:51 16.97277 -61.75358 9992 ft 153 kts 344°
2026-04-21 23:51 16.98299 -61.75667 9993 ft 153 kts 344°
2026-04-21 23:51 16.99319 -61.75976 9994 ft 152 kts 344°
2026-04-21 23:52 17.00341 -61.76287 9995 ft 153 kts 343°
2026-04-21 23:52 17.01364 -61.76597 9993 ft 153 kts 344°
2026-04-21 23:52 17.02386 -61.76902 9994 ft 153 kts 344°
2026-04-21 23:52 17.03410 -61.77213 9993 ft 153 kts 343°
2026-04-21 23:53 17.04430 -61.77524 9991 ft 152 kts 344°
2026-04-21 23:53 17.05450 -61.77832 9991 ft 153 kts 344°
2026-04-21 23:53 17.06475 -61.78141 9992 ft 154 kts 344°
2026-04-21 23:53 17.07505 -61.78454 9993 ft 154 kts 344°
2026-04-21 23:54 17.08540 -61.78768 9993 ft 154 kts 344°
2026-04-21 23:54 17.09570 -61.79081 9992 ft 154 kts 344°
2026-04-21 23:54 17.10583 -61.79389 9991 ft 154 kts 344°
2026-04-21 23:54 17.11617 -61.79702 9992 ft 154 kts 344°
2026-04-21 23:55 17.12597 -61.80131 9982 ft 153 kts 323°
2026-04-21 23:55 17.13289 -61.80974 9984 ft 153 kts 305°
2026-04-21 23:55 17.13907 -61.81874 9986 ft 152 kts 307°
2026-04-21 23:55 17.14536 -61.82771 9986 ft 152 kts 307°
2026-04-21 23:56 17.15154 -61.83653 9988 ft 153 kts 307°
2026-04-21 23:56 17.15788 -61.84562 9989 ft 153 kts 307°
2026-04-21 23:56 17.16419 -61.85464 9990 ft 154 kts 307°
2026-04-21 23:56 17.17041 -61.86357 9990 ft 153 kts 307°
2026-04-21 23:57 17.17670 -61.87256 9989 ft 153 kts 307°
2026-04-21 23:57 17.18297 -61.88155 9994 ft 153 kts 307°
2026-04-21 23:57 17.18922 -61.89051 9993 ft 153 kts 307°
2026-04-21 23:57 17.19545 -61.89944 9992 ft 152 kts 307°
2026-04-21 23:58 17.20171 -61.90842 9994 ft 152 kts 307°
2026-04-21 23:58 17.20792 -61.91731 9991 ft 151 kts 307°
2026-04-21 23:58 17.21412 -61.92622 9992 ft 151 kts 307°
2026-04-21 23:58 17.22031 -61.93509 9992 ft 151 kts 307°
2026-04-21 23:59 17.22651 -61.94398 9991 ft 151 kts 307°
2026-04-21 23:59 17.23262 -61.95274 9991 ft 151 kts 307°
2026-04-21 23:59 17.23881 -61.96161 9992 ft 151 kts 307°
2026-04-21 23:59 17.24498 -61.97047 9992 ft 151 kts 307°
2026-04-22 00:00 17.25120 -61.97939 9993 ft 151 kts 307°
2026-04-22 00:00 17.25741 -61.98829 9992 ft 151 kts 307°
2026-04-22 00:00 17.26359 -61.99717 9992 ft 151 kts 307°
2026-04-22 00:00 17.26980 -62.00608 9991 ft 151 kts 307°
2026-04-22 00:01 17.27592 -62.01487 9991 ft 151 kts 307°
2026-04-22 00:01 17.28212 -62.02376 9993 ft 151 kts 307°
2026-04-22 00:01 17.28831 -62.03264 9992 ft 151 kts 307°
2026-04-22 00:01 17.29448 -62.04151 9993 ft 151 kts 307°
2026-04-22 00:02 17.30071 -62.05045 9993 ft 152 kts 307°
2026-04-22 00:02 17.30694 -62.05939 9994 ft 152 kts 307°
2026-04-22 00:02 17.31318 -62.06836 9994 ft 152 kts 307°
2026-04-22 00:02 17.31941 -62.07731 9994 ft 152 kts 307°
2026-04-22 00:03 17.32565 -62.08628 9994 ft 152 kts 307°
2026-04-22 00:03 17.33191 -62.09526 9994 ft 152 kts 307°
2026-04-22 00:03 17.33815 -62.10424 9994 ft 152 kts 307°
2026-04-22 00:03 17.34439 -62.11322 9994 ft 152 kts 307°
2026-04-22 00:04 17.35065 -62.12220 9993 ft 152 kts 307°
2026-04-22 00:04 17.35689 -62.13118 9993 ft 152 kts 307°
2026-04-22 00:04 17.36305 -62.14004 9993 ft 152 kts 307°
2026-04-22 00:04 17.36931 -62.14904 9993 ft 153 kts 307°
2026-04-22 00:05 17.37557 -62.15805 9993 ft 153 kts 307°
2026-04-22 00:05 17.38181 -62.16701 9992 ft 153 kts 307°
2026-04-22 00:05 17.38806 -62.17602 9992 ft 153 kts 307°
2026-04-22 00:05 17.39429 -62.18497 9991 ft 152 kts 307°
2026-04-22 00:06 17.40054 -62.19398 9991 ft 152 kts 307°
2026-04-22 00:06 17.40678 -62.20295 9991 ft 152 kts 307°
2026-04-22 00:06 17.41295 -62.21182 9992 ft 152 kts 307°
2026-04-22 00:06 17.41918 -62.22080 9992 ft 152 kts 307°
2026-04-22 00:07 17.42542 -62.22978 9991 ft 152 kts 307°
2026-04-22 00:07 17.43166 -62.23876 9991 ft 152 kts 307°
2026-04-22 00:07 17.43790 -62.24775 9991 ft 152 kts 307°
2026-04-22 00:07 17.44413 -62.25673 9993 ft 152 kts 307°
2026-04-22 00:08 17.45037 -62.26572 9992 ft 152 kts 307°
2026-04-22 00:08 17.45661 -62.27471 9992 ft 152 kts 307°
2026-04-22 00:08 17.46283 -62.28368 9992 ft 152 kts 307°
2026-04-22 00:08 17.46906 -62.29266 9991 ft 152 kts 307°
2026-04-22 00:09 17.47529 -62.30164 9991 ft 152 kts 307°
2026-04-22 00:09 17.48153 -62.31062 9991 ft 153 kts 307°
2026-04-22 00:09 17.48777 -62.31962 9991 ft 153 kts 307°
2026-04-22 00:09 17.49394 -62.32852 9991 ft 153 kts 307°
2026-04-22 00:10 17.50018 -62.33752 9992 ft 153 kts 307°
2026-04-22 00:10 17.50641 -62.34652 9992 ft 153 kts 307°
2026-04-22 00:10 17.51265 -62.35552 9992 ft 153 kts 307°
2026-04-22 00:10 17.51889 -62.36451 10007 ft 152 kts 307°
2026-04-22 00:11 17.52507 -62.37344 10010 ft 152 kts 307°
2026-04-22 00:11 17.53128 -62.38240 10009 ft 152 kts 307°
2026-04-22 00:11 17.53751 -62.39138 10015 ft 153 kts 307°
2026-04-22 00:11 17.54375 -62.40040 10010 ft 152 kts 307°
2026-04-22 00:12 17.54998 -62.40939 10009 ft 152 kts 307°
2026-04-22 00:12 17.55616 -62.41831 10014 ft 152 kts 307°
2026-04-22 00:12 17.56239 -62.42730 10009 ft 153 kts 307°
2026-04-22 00:12 17.56862 -62.43630 10014 ft 153 kts 307°
2026-04-22 00:13 17.57486 -62.44532 10009 ft 153 kts 307°
2026-04-22 00:13 17.58110 -62.45434 10008 ft 152 kts 307°
2026-04-22 00:13 17.58732 -62.46333 10009 ft 152 kts 307°
2026-04-22 00:13 17.59356 -62.47234 10012 ft 153 kts 307°
2026-04-22 00:14 17.59978 -62.48133 10009 ft 153 kts 307°
2026-04-22 00:14 17.60601 -62.49034 10008 ft 153 kts 307°
2026-04-22 00:14 17.61014 -62.49630 10009 ft 153 kts 307°
2026-04-22 00:14 17.61839 -62.50823 10009 ft 153 kts 307°
2026-04-22 00:15 17.62463 -62.51725 10009 ft 152 kts 307°
2026-04-22 00:15 17.63086 -62.52626 10008 ft 153 kts 307°
2026-04-22 00:15 17.63710 -62.53529 10017 ft 153 kts 307°
2026-04-22 00:15 17.64334 -62.54431 10014 ft 153 kts 307°
2026-04-22 00:16 17.64745 -62.55027 10009 ft 152 kts 307°
2026-04-22 00:16 17.65251 -62.55997 10010 ft 152 kts 291°
2026-04-22 00:16 17.65613 -62.57040 10009 ft 152 kts 292°
2026-04-22 00:16 17.65992 -62.58070 10013 ft 153 kts 292°
2026-04-22 00:17 17.66375 -62.59109 10009 ft 152 kts 292°
2026-04-22 00:17 17.66756 -62.60143 10009 ft 153 kts 292°
2026-04-22 00:17 17.67139 -62.61182 10010 ft 153 kts 292°
2026-04-22 00:17 17.67522 -62.62226 10012 ft 153 kts 292°
2026-04-22 00:18 17.67904 -62.63268 10014 ft 153 kts 292°
2026-04-22 00:18 17.68281 -62.64294 10012 ft 153 kts 292°
2026-04-22 00:18 17.68662 -62.65332 10010 ft 152 kts 292°
2026-04-22 00:18 17.69040 -62.66368 10012 ft 152 kts 292°
2026-04-22 00:19 17.69424 -62.67406 10010 ft 153 kts 292°
2026-04-22 00:19 17.69806 -62.68449 10007 ft 153 kts 292°
2026-04-22 00:19 17.70192 -62.69499 9932 ft 157 kts 292°
2026-04-22 00:19 17.70592 -62.70583 9814 ft 162 kts 292°
2026-04-22 00:20 17.70986 -62.71662 9681 ft 151 kts 292°
2026-04-22 00:20 17.71346 -62.72669 9537 ft 147 kts 292°
2026-04-22 00:20 17.71710 -62.73668 9404 ft 147 kts 292°
2026-04-22 00:20 17.72078 -62.74672 9277 ft 148 kts 292°
2026-04-22 00:21 17.72456 -62.75691 9156 ft 151 kts 292°
2026-04-22 00:21 17.72837 -62.76723 9036 ft 152 kts 292°
2026-04-22 00:21 17.73213 -62.77749 8916 ft 153 kts 292°
2026-04-22 00:21 17.73595 -62.78792 8794 ft 153 kts 292°
2026-04-22 00:22 17.73977 -62.79836 8672 ft 154 kts 292°
2026-04-22 00:22 17.74362 -62.80888 8546 ft 154 kts 292°
2026-04-22 00:22 17.74747 -62.81939 8425 ft 154 kts 292°
2026-04-22 00:22 17.75131 -62.82990 8334 ft 152 kts 292°
2026-04-22 00:23 17.75502 -62.84007 8299 ft 147 kts 292°
2026-04-22 00:23 17.75866 -62.85003 8266 ft 145 kts 292°
2026-04-22 00:23 17.76225 -62.85985 8234 ft 143 kts 292°
2026-04-22 00:23 17.76564 -62.86912 8198 ft 143 kts 292°
2026-04-22 00:24 17.76921 -62.87885 8178 ft 142 kts 292°
2026-04-22 00:24 17.77275 -62.88855 8150 ft 141 kts 292°
2026-04-22 00:24 17.77637 -62.89835 8033 ft 146 kts 292°
2026-04-22 00:24 17.78006 -62.90845 7916 ft 149 kts 292°
2026-04-22 00:25 17.78378 -62.91868 7796 ft 150 kts 292°
2026-04-22 00:25 17.78737 -62.92889 7675 ft 151 kts 292°
2026-04-22 00:25 17.79111 -62.93885 7560 ft 153 kts 293°
2026-04-22 00:25 17.79497 -62.94923 7439 ft 153 kts 292°
2026-04-22 00:26 17.79862 -62.95925 7320 ft 153 kts 292°
2026-04-22 00:26 17.80247 -62.96975 7196 ft 153 kts 292°
2026-04-22 00:26 17.80627 -62.98023 7071 ft 154 kts 292°
2026-04-22 00:26 17.81008 -62.99068 6946 ft 153 kts 292°
2026-04-22 00:27 17.81388 -63.00110 6821 ft 153 kts 292°
2026-04-22 00:27 17.81764 -63.01138 6697 ft 152 kts 292°
2026-04-22 00:27 17.82142 -63.02177 6571 ft 152 kts 292°
2026-04-22 00:27 17.82521 -63.03213 6445 ft 152 kts 292°
2026-04-22 00:28 17.82899 -63.04251 6320 ft 152 kts 292°
2026-04-22 00:28 17.83275 -63.05280 6196 ft 151 kts 292°
2026-04-22 00:28 17.83649 -63.06310 6071 ft 151 kts 292°
2026-04-22 00:28 17.84022 -63.07331 5947 ft 152 kts 292°
2026-04-22 00:29 17.84398 -63.08368 5823 ft 152 kts 292°
2026-04-22 00:29 17.84777 -63.09403 5698 ft 152 kts 293°
2026-04-22 00:29 17.85156 -63.10441 5573 ft 152 kts 293°
2026-04-22 00:29 17.85534 -63.11482 5447 ft 152 kts 294°
2026-04-22 00:30 17.85913 -63.12515 5318 ft 152 kts 294°
2026-04-22 00:30 17.86292 -63.13558 5198 ft 153 kts 293°
2026-04-22 00:30 17.86670 -63.14603 5072 ft 152 kts 294°
2026-04-22 00:30 17.87044 -63.15628 4947 ft 152 kts 294°
2026-04-22 00:31 17.87424 -63.16676 4819 ft 151 kts 294°
2026-04-22 00:31 17.87795 -63.17694 4688 ft 151 kts 294°
2026-04-22 00:31 17.88171 -63.18725 4569 ft 151 kts 294°
2026-04-22 00:31 17.88546 -63.19756 4445 ft 152 kts 294°
2026-04-22 00:32 17.88923 -63.20793 4321 ft 152 kts 294°
2026-04-22 00:32 17.89300 -63.21831 4196 ft 152 kts 294°
2026-04-22 00:32 17.89675 -63.22866 4070 ft 151 kts 294°
2026-04-22 00:32 17.90051 -63.23897 3944 ft 151 kts 294°
2026-04-22 00:33 17.90423 -63.24921 3818 ft 151 kts 294°
2026-04-22 00:33 17.90800 -63.25957 3692 ft 151 kts 294°
2026-04-22 00:33 17.91163 -63.26952 3558 ft 144 kts 297°
2026-04-22 00:33 17.91764 -63.27732 3420 ft 135 kts 329°
2026-04-22 00:34 17.92605 -63.28095 3288 ft 129 kts 355°
2026-04-22 00:34 17.93487 -63.28219 3161 ft 128 kts 355°
2026-04-22 00:34 17.94364 -63.28363 3033 ft 127 kts 355°
2026-04-22 00:34 17.95238 -63.28502 2907 ft 127 kts 355°
2026-04-22 00:35 17.96110 -63.28639 2781 ft 127 kts 355°
2026-04-22 00:35 17.96984 -63.28776 2656 ft 127 kts 355°
2026-04-22 00:35 17.97841 -63.28912 2578 ft 123 kts 355°
2026-04-22 00:35 17.98684 -63.29045 2501 ft 121 kts 355°
2026-04-22 00:36 17.99511 -63.29176 2446 ft 119 kts 355°
2026-04-22 00:36 18.00331 -63.29297 2391 ft 118 kts
2026-04-22 00:36 18.01079 -63.29062 2333 ft 113 kts 38°
2026-04-22 00:36 18.01550 -63.28419 2281 ft 113 kts 69°
2026-04-22 00:37 18.01680 -63.27599 2210 ft 115 kts 79°
2026-04-22 00:37 18.01805 -63.26772 2138 ft 115 kts 79°
2026-04-22 00:37 18.01927 -63.25933 2066 ft 116 kts 79°
2026-04-22 00:37 18.02048 -63.25091 1993 ft 116 kts 79°
2026-04-22 00:38 18.02169 -63.24249 1920 ft 117 kts 79°
2026-04-22 00:38 18.02290 -63.23414 1847 ft 117 kts 79°
2026-04-22 00:38 18.02412 -63.22567 1777 ft 118 kts 79°
2026-04-22 00:38 18.02535 -63.21713 1702 ft 118 kts 79°
2026-04-22 00:39 18.02657 -63.20857 1629 ft 119 kts 79°
2026-04-22 00:39 18.02780 -63.20001 1555 ft 118 kts 79°
2026-04-22 00:39 18.02902 -63.19146 1502 ft 116 kts 79°
2026-04-22 00:39 18.03022 -63.18309 1418 ft 119 kts 80°
2026-04-22 00:40 18.03165 -63.17448 1296 ft 122 kts 77°
2026-04-22 00:40 18.03306 -63.16535 1047 ft 131 kts 82°
2026-04-22 00:40 18.03393 -63.15575 845 ft 130 kts 82°
2026-04-22 00:40 18.03521 -63.14666 676 ft 115 kts 77°
2026-04-22 00:41 18.03672 -63.13869 397 ft 107 kts 83°
2026-04-22 00:41 18.03756 -63.13125 268 ft 103 kts 77°
2026-04-22 00:41 18.03871 -63.12385 173 ft 100 kts 79°
2026-04-22 00:41 18.03972 -63.11724 40 ft 88 kts 79°
2026-04-22 00:42 18.04051 -63.11168 26 ft 61 kts 81°
2026-04-22 00:42 18.04091 -63.10974 27 ft 7 kts 331°
2026-04-22 00:42 18.04068 -63.11053 26 ft 17 kts 261°
2026-04-22 00:42 18.04104 -63.11159 26 ft 8 kts 347°
2026-04-22 00:43 18.04147 -63.11192 27 ft 11 kts 259°
2026-04-22 00:43 18.04139 -63.11291 27 ft 10 kts 298°
2026-04-22 00:43 18.04202 -63.11303 27 ft 10 kts 28°
2026-04-22 00:43 18.04215 -63.11253 27 ft 7 kts 83°
2026-04-22 00:44 18.04186 -63.11242 27 ft 2 kts 169°
2026-04-22 00:44 18.04173 -63.11240 27 ft 0 kts 171°